Terug naar catalogus

STARLINK-30576

ActiefCommunicatieVLEO
NORAD 58065·PAYLOAD·🇺🇸 United States

Gelanceerd Oct 13, 2023 vanaf Cape Canaveral Space Force Station

Loading…

Volgende Passages (komende 24 uur)

TLE

VersSource: CelesTrak SupGP

Epoch: Sep 14, 2026, 22:13 UTC

1 58065C 23158Q   26257.92618056  .00003720  00000+0  13466-3 0  2573
2 58065  43.0009  38.3358 0001713 269.1051   9.4453 15.27591145    14

Volg STARLINK-30576 in realtime met AllMySat

Download on the App Store